Regional Weather Roundup
Issued by NWS

Home | Current Version | Previous Version | Graphics & Text | Print | Product List | Glossary On
Versions: 1 2 3 4 5 6 7 8 9 10 11 12 13 14 15 16 17 18 19 20 21 22 23 24 25 26 27 28 29 30 31 32 33 34 35 36 37 38 39 40 41 42 43 44 45 46 47 48 49 50
000
ASUS43 KDMX 121401
RWRIA

WEATHER ROUNDUP FOR IOWA
NATIONAL WEATHER SERVICE DES MOINES IA
800 AM CST TUE DEC 12 2017

NOTE: "FAIR" INDICATES FEW OR NO CLOUDS BELOW 12,000 FEET WITH NO
SIGNIFICANT WEATHER AND/OR OBSTRUCTIONS TO VISIBILITY.

* - THESE STATIONS ARE NOT NWS STATIONS...THUS NOT UNDER NWS
QUALITY CONTROL.  THEY ALSO DO NOT REPORT WEATHER SUCH
AS PRECIPITATION OR FOG.

IAZ001>003-012>014-020>022-031>034-043>046-121500-
   NORTHWEST IOWA

CITY           SKY/WX    TMP DP  RH WIND       PRES   REMARKS
CARROLL *      CLOUDY    12  10  92 W7        30.27F WCI   2
CHEROKEE *     CLOUDY    10   8  93 SW3       30.28F
DENISON *      CLOUDY    14  12  92 W5        30.30F WCI   6
LE MARS *      CLOUDY    14  12  92 CALM      30.29F
ORANGE CITY *  CLOUDY    16  16 100 W5        30.26S WCI   9
SHELDON *      CLOUDY    10   9  92 W5        30.24F WCI   2
SIOUX CITY     CLOUDY    12  10  92 W5        30.30F WCI   4
SPENCER        CLOUDY    12   8  84 W9        30.25F WCI   0
STORM LAKE *   CLOUDY    10   9  92 W10       30.25F WCI  -3
$$

IAZ055>058-069>071-079>083-090>094-121500-
   SOUTHWEST IOWA

CITY           SKY/WX    TMP DP  RH WIND       PRES   REMARKS
ATLANTIC *     CLOUDY    14  12  92 CALM      30.30S
AUDUBON *      CLOUDY    16  10  79 CALM      30.28F
CLARINDA *     CLOUDY    16  12  86 NW5       30.34F WCI   9
COUNCIL BLFS * CLOUDY    16  16 100 W7        30.31F WCI   6
CRESTON *      CLOUDY    10   9  92 W6        30.30S WCI   1
HARLAN  *      CLOUDY    12  10  92 W8        30.32F WCI   1
LAMONI         CLOUDY    14   8  77 NW8       30.28F WCI   3
RED OAK *      CLOUDY    14  10  85 CALM      30.32F
SHENANDOAH *   CLOUDY    16  12  86 W5        30.34F WCI   9
$$

IAZ047>049-059>061-072>074-084-121500-
   CENTRAL IOWA

CITY           SKY/WX    TMP DP  RH WIND       PRES   REMARKS
AMES           CLOUDY    11   8  88 W6        30.27S WCI   1
ANKENY *       CLOUDY    14  10  85 NW9       30.29F WCI   2
BOONE *        CLOUDY    12   9  85 NW10      30.25S WCI  -1
CHARITON *     CLEAR     14   9  79 W6        30.27S WCI   5
DES MOINES     CLOUDY    15   8  73 NW10      30.28S WCI   2
GRINNELL*      CLEAR     12   7  80 NW7       30.25S WCI   1
KNOXVILLE *    CLEAR     14   7  73 W9        30.25S WCI   2
MARSHALLTOWN   CLOUDY    10   6  84 NW9       30.23F WCI  -3
NEWTON *       CLEAR     14   7  73 NW9       30.26R WCI   2
PELLA *        CLEAR     14   8  76 NW10      30.28R WCI   1
PERRY *          N/A     13   9  84 W9        30.29S WCI   1
$$

IAZ004>006-015-016-023>025-035-036-121500-
   NORTH CENTRAL IOWA

CITY           SKY/WX    TMP DP  RH WIND       PRES   REMARKS
ALGONA *       CLOUDY    10   9  92 W7        30.23S WCI   0
CLARION *      CLOUDY     9   5  85 W6        30.24S WCI  -1
ESTHERVILLE    CLOUDY    10   8  92 W9        30.22F WCI  -3
MASON CITY     CLOUDY     8   3  80 NW8       30.23R WCI  -4
FOREST CITY *    N/A     10   7  85 NW9       30.22R WCI  -2
WEBSTER CITY * CLOUDY    10   5  79 NW10      30.23F WCI  -3
IOWA FALLS *     N/A     10   6  85 W7        30.24S WCI  -2
$$

IAZ007>011-017>019-026>030-037>042-050>054-066-121500-
   NORTHEAST IOWA

CITY           SKY/WX    TMP DP  RH WIND       PRES   REMARKS
CEDAR RAPIDS   CLEAR     13   9  84 NW9       30.21R WCI   1
CHARLES CITY * CLEAR     10   7  85 NW8       30.20S WCI  -1
CLINTON *      CLEAR     15  10  80 NW15      30.18R WCI   0
DECORAH *      CLEAR     10   7  85 NW9       30.16S WCI  -2
DUBUQUE        CLEAR     12   7  80 NW15      30.14S WCI  -4
MONTICELLO *   CLEAR     14   9  79 NW14      30.18R WCI  -1
OELWEIN *      CLEAR     10   9  92 NW13      30.19F WCI  -5
WATERLOO       CLEAR     10   5  80 W7        30.23R WCI  -1
$$

IAZ064-065-067-068-078-121500-
   EAST CENTRAL IOWA

CITY           SKY/WX    TMP DP  RH WIND       PRES   REMARKS
DAVENPORT      CLEAR     17  11  77 NW14      30.20S WCI   3
IOWA CITY      CLEAR     16  10  77 W10       30.25R WCI   4
MT. PLEASANT * CLEAR     16  11  81 W12       30.24S WCI   3
MUSCATINE *    CLEAR     18  12  79 NW13      30.24R WCI   4
QUAD CITIES    CLEAR     19  12  74 NW13      30.19S WCI   6
$$

IAZ062-063-075>077-085>089-095>099-121500-
   SOUTHEAST IOWA

CITY           SKY/WX    TMP DP  RH WIND       PRES   REMARKS
BURLINGTON     CLEAR     18  14  84 NW12      30.22S WCI   5
FAIRFIELD *    CLEAR     16   9  73 NW13      30.25R WCI   2
FORT MADISON * CLEAR     18  14  86 NW13G18   30.24S WCI   4
KEOKUK *       CLEAR     19  14  79 NW12      30.24S WCI   7
OSKALOOSA *      N/A     14   9  79 NW8       30.26S WCI   3
OTTUMWA        CLEAR     15   7  70 NW10      30.25S WCI   2
WASHINGTON *   CLEAR     16  12  86 NW14      30.25S WCI   1
$$

ABBREVIATIONS USED IN REMARKS
   TC - TEMPERATURES IN CELSIUS
  WCI - WIND CHILL INDEX
   HX - HEAT INDEX
  VSB - VISIBILITY
$$





USA.gov is the U.S. government's official web portal to all federal, state and local government web resources and services.